Nantucket, Massachusetts, United States (02554)
Lat: 41.28N, Lon: 70.1W
Wx Zone: MAZ024
Local Info
Past Weather Observations for Today

NOTE: This archive is for the closest National Weather Service station to Nantucket. Information may differ from the station used for current weather conditions.

Click here for Long-term Archive

Time Weather Temperature Dewpoint Humidity Pressure Winds Precip Visibility
09:53
Overcast
Fog And Mist
55°F / 13°C 54°F / 12°C 94% 29.89 in
(1012 mb)
S 18.4 mph
(S 30 kph)
0.01 in
(0.25 mm)
4SM
08:53
Overcast
Light Rain
55°F / 13°C 54°F / 12°C 94% 29.89 in
(1012 mb)
S 12.7 mph
(S 20 kph)
0.00 in
(0.00 mm)
1SM
08:30
Obscured
Light Rain
55°F / 13°C 54°F / 12°C 94% 29.89 in
(1012 mb)
S 12.7 mph
(S 20 kph)
0.00 in
(0.00 mm)
3/4SM
08:22
Obscured
Light Rain
55°F / 13°C 54°F / 12°C 94% 29.89 in
(1012 mb)
SSE 13.8 mph
(SSE 22 kph)
0.00 in
(0.00 mm)
3/4SM
08:13
Obscured
Light Rain
55°F / 13°C 54°F / 12°C 94% 29.86 in
(1011 mb)
SSE 16.1 mph
(SSE 26 kph)
0.00 in
(0.00 mm)
1/4SM
07:53
Obscured
Light Rain
55°F / 13°C 55°F / 13°C 100% 29.86 in
(1011 mb)
SSE 13.8 mph
(SSE 22 kph)
0.00 in
(0.00 mm)
3/4SM
07:39
Obscured
Light Rain
57°F / 14°C 55°F / 13°C 94% 29.86 in
(1011 mb)
SSE 13.8 mph
(SSE 22 kph)
0.00 in
(0.00 mm)
1/2SM
07:29
Obscured
Light Rain
57°F / 14°C 55°F / 13°C 94% 29.86 in
(1011 mb)
SSE 12.7 mph
(SSE 20 kph)
0.00 in
(0.00 mm)
1/2SM
07:00
Overcast
Fog And Mist
57°F / 14°C 55°F / 13°C 94% 29.86 in
(1011 mb)
SE 12.7 mph
(SE 20 kph)
0.00 in
(0.00 mm)
1 3/4SM
06:53
Obscured
Light Rain
57°F / 14°C 55°F / 13°C 94% 29.86 in
(1011 mb)
SE 11.5 mph
(SE 19 kph)
0.00 in
(0.00 mm)
1/2SM
06:35
Obscured
Fog
57°F / 14°C 55°F / 13°C 94% 29.86 in
(1011 mb)
SE 11.5 mph
(SE 19 kph)
- 1/2SM
06:28
Obscured
Fog
57°F / 14°C 55°F / 13°C 94% 29.83 in
(1010 mb)
SE 12.7 mph
(SE 20 kph)
- 1/4SM
06:01
Obscured
Fog
55°F / 13°C 54°F / 12°C 94% 29.86 in
(1011 mb)
E 12.7 mph
(E 20 kph)
- 1/4SM
05:53
Obscured
Fog
55°F / 13°C 54°F / 12°C 94% 29.86 in
(1011 mb)
E 10.4 mph
(E 17 kph)
- 1/2SM
05:41
Obscured
Fog
54°F / 12°C 54°F / 12°C 100% 29.86 in
(1011 mb)
E 11.5 mph
(E 19 kph)
- 1/2SM
04:53
Obscured
Fog
54°F / 12°C 52°F / 11°C 94% 29.86 in
(1011 mb)
NE 13.8 mph
(NE 22 kph)
- 1/4SM
04:42
Obscured
Fog
54°F / 12°C 52°F / 11°C 94% 29.83 in
(1010 mb)
NE 13.8 mph
(NE 22 kph)
- 1/4SM
04:22
Obscured
Fog And Mist
54°F / 12°C 52°F / 11°C 94% 29.83 in
(1010 mb)
ENE 13.8 mph
(ENE 22 kph)
- 3/4SM
03:53
Overcast
Fog And Mist
54°F / 12°C 52°F / 11°C 94% 29.83 in
(1010 mb)
NE 15 mph
(NE 24 kph)
- 1 1/2SM
03:34
Overcast
Fog And Mist
54°F / 12°C 52°F / 11°C 94% 29.83 in
(1010 mb)
NE 13.8 mph
(NE 22 kph)
- 2SM
03:25
Overcast
Fog And Mist
52°F / 11°C 50°F / 10°C 94% 29.83 in
(1010 mb)
NE 12.7 mph
(NE 20 kph)
- 1 3/4SM
03:12
Overcast
Fog And Mist
52°F / 11°C 50°F / 10°C 94% 29.83 in
(1010 mb)
NE 11.5 mph
(NE 19 kph)
- 2 1/2SM
02:53
Overcast
Fog And Mist
52°F / 11°C 50°F / 10°C 94% 29.83 in
(1010 mb)
NE 17.3 mph
(NE 28 kph)
- 3SM
01:53
Overcast
Fog And Mist
52°F / 11°C 50°F / 10°C 94% 29.86 in
(1011 mb)
NE 12.7 mph
(NE 20 kph)
0.00 in
(0.00 mm)
2SM
01:29
Overcast
Fog And Mist
52°F / 11°C 50°F / 10°C 94% 29.86 in
(1011 mb)
NE 12.7 mph
(NE 20 kph)
0.00 in
(0.00 mm)
2 1/2SM
00:53
Overcast
Light Rain
52°F / 11°C 50°F / 10°C 94% 29.86 in
(1011 mb)
NE 12.7 mph
(NE 20 kph)
- 7SM
00:34
Overcast
Light Rain
52°F / 11°C 50°F / 10°C 94% 29.89 in
(1012 mb)
NE 9.2 mph
(NE 15 kph)
- 5SM
00:26
Overcast
Heavy Rain
52°F / 11°C 50°F / 10°C 94% 29.86 in
(1011 mb)
NE 11.5 mph
(NE 19 kph)
- 2 1/2SM
00:04
Overcast
Light Rain
52°F / 11°C 48°F / 9°C 88% 29.86 in
(1011 mb)
NE 10.4 mph
(NE 17 kph)
0.00 in
(0.00 mm)
3SM
Time Weather Temperature Dewpoint Humidity Pressure Winds Precip Visibility


Weather for websites

WeatherForYou.com, LLC is not responsible for any damages or problems caused by this service. Current weather conditions are obtained from the closest station including government and personal stations which may have varying degrees of accuracy. Weather forecasts are derived from the NOAA NDFD. Like all things, this site belongs to Jesus Christ... He just trusts us to maintain it. If you have any questions or comments email webmaster@weatherforyou.com

Copyright © 2016, WeatherForYou.com LLC. All rights reserved.